Location: Naalehu
(19.0640°N, 155.5860°W)
Time: 23:39:52
(UTC-10:00)

Tiangong 2 - Visible Passes

Search period start: 25 April 2019 00:00
Search period end: 05 May 2019 00:00
Orbit: 378 x 390 km, 42.8° (Epoch: 26 April)

Date Brightness Start Highest point End Pass type
(mag) Time Alt. Az. Time Alt. Az. Time Alt. Az.
26 Apr 3.5 04:54:52 10° S 04:57:07 18° SE 04:59:22 10° E visible
27 Apr 1.2 05:30:44 10° WSW 05:33:51 61° NW 05:36:59 10° NE visible
28 Apr 1.7 04:33:44 43° SSE 04:34:04 45° SE 04:37:07 10° ENE visible
29 Apr 2.6 05:09:12 16° W 05:10:56 25° NW 05:13:37 10° NNE visible
30 Apr 2.8 04:12:20 31° NNE 04:12:20 31° NNE 04:14:11 10° NE visible
01 May 3.5 04:47:35 12° NW 04:48:05 12° NNW 04:49:29 10° N visible
02 May 4.3 03:50:32 11° NNE 03:50:32 11° NNE 03:50:47 10° NNE visible
